Location: Drummondville
(45.8830°N, 72.4830°W)
Time: 07:33:33
(UTC-05:00)

OTV 5 (USA 277) - Pass Details

Date: 17 November 2017
Orbit: 404 x 417 km, 43.0° (Epoch: 07 September)

Event Time Altitude Azimuth Distance (km) Brightness Sun altitude
Exits shadow 05:53:06 12° 254° (WSW) 1,327 ? -10.5°
Maximum altitude 05:55:26 24° 202° (SSW) 871 ? -10.1°
Drops below altitude 10° 05:58:10 10° 145° (SE) 1,451 ? -9.7°
Sets 06:00:29 0° 132° (SE) 2,308 ? -9.3°
